Wautoma, WI

12:49 PM CDT on May 27, 2018 (GMT -0500)
Wautoma

Weather History for KY50 - May, 2013

Change the Weather History Date:

Thursday, May 9, 2013

  Actual Average (WUND) Record (WUND)
Temperature  
Mean Temperature 54 °F -  
Max Temperature 64 °F - - (-1)
Min Temperature 43 °F - - (-1)
Degree Days  
Heating Degree Days 10    
Growing Degree Days 4 (Base 50)    
Moisture  
Dew Point 51 °F    
Average Humidity 92    
Maximum Humidity 100    
Minimum Humidity 60    
Precipitation  
Precipitation 0.37 in - - ()
Sea Level Pressure  
Sea Level Pressure 29.96 in    
Wind  
Wind Speed 10 mph (NE)    
Max Wind Speed 18 mph    
Max Gust Speed 24 mph    
Visibility 4 miles    
Events Rain    
Averages and records for this station are not official NWS values.
T = Trace of Precipitation, MM = Missing Value Source: NWS Daily Summary

Daily Weather History Graph

Daily Weather History Graph

Search for Another Location

Airport or City:

Astronomy

May. 09, 2013 Rise Set
Actual Time 5:37 AM CDT 8:10 PM CDT
Civil Twilight 5:04 AM CDT 8:43 PM CDT
Nautical Twilight 4:24 AM CDT 9:24 PM CDT
Astronomical Twilight 3:37 AM CDT 10:10 PM CDT
Moon 5:23 AM CDT (5/9) 8:05 PM CDT (5/9)
Length of Visible Light 15h 38m
Length of Day
14h 32m
Waning Crescent, 0% of the Moon is Illuminated
May 9
Waning Crescent
May 9
New
May 17
First Quarter
May 24
Full
May 31
Last Quarter

Hourly Weather History & Observations

Time (CDT) Temp. Windchill Dew Point Humidity Pressure Visibility Wind Dir Wind Speed Gust Speed Precip Events Conditions
10:56 AM 64.9 °F - 50.9 °F 60% 29.96 in 10.0 mi NNW 6.9 mph - N/A   Partly Cloudy
11:56 AM 63.9 °F - 50.0 °F 61% 29.96 in 10.0 mi North 10.4 mph - N/A   Mostly Cloudy
12:56 PM 63.0 °F - 50.0 °F 63% 29.96 in 10.0 mi NE 9.2 mph - 0.00 in Rain Light Rain
1:30 PM 60.8 °F - 51.8 °F 72% 29.98 in 5.0 mi NE 10.4 mph - 0.00 in Rain Light Rain
1:56 PM 59.9 °F - 52.9 °F 78% 29.97 in 5.0 mi NE 6.9 mph - 0.02 in Rain Light Rain
2:56 PM 56.8 °F - 52.9 °F 87% 29.96 in 6.0 mi NE 6.9 mph - 0.03 in Rain Light Rain
3:28 PM 55.4 °F - 53.6 °F 94% 29.96 in 3.0 mi NE 6.9 mph - 0.02 in Rain Light Rain
3:45 PM 55.4 °F - 53.6 °F 94% 29.96 in 2.5 mi NE 8.1 mph - 0.04 in Rain Light Rain
3:56 PM 55.4 °F - 53.6 °F 94% 29.96 in 2.0 mi ENE 6.9 mph - N/A Rain Light Rain
4:10 PM 55.4 °F - 53.6 °F 94% 29.96 in 2.5 mi ENE 5.8 mph - 0.02 in Rain Light Rain
4:15 PM 55.4 °F - 53.6 °F 94% 29.95 in 2.0 mi ENE 9.2 mph - 0.02 in Rain Light Rain
4:23 PM 55.4 °F - 53.6 °F 94% 29.95 in 1.8 mi ENE 9.2 mph - 0.04 in Rain Rain
4:33 PM 55.4 °F - 53.6 °F 94% 29.95 in 3.0 mi ENE 9.2 mph - 0.05 in Rain Light Rain
4:56 PM 54.9 °F - 52.0 °F 90% 29.95 in 4.0 mi NE 8.1 mph - 0.06 in Rain Light Rain
5:56 PM 54.0 °F - 52.9 °F 96% 29.95 in 3.0 mi ENE 9.2 mph - 0.03 in Rain Light Rain
6:05 PM 53.6 °F - 53.6 °F 100% 29.95 in 2.5 mi East 8.1 mph - 0.01 in Rain Light Rain
6:12 PM 53.6 °F - 51.8 °F 94% 29.95 in 2.0 mi East 12.7 mph - 0.02 in Rain Light Rain
6:27 PM 53.6 °F - 51.8 °F 94% 29.94 in 2.0 mi ENE 12.7 mph 18.4 mph 0.04 in Rain Light Rain
6:39 PM 53.6 °F - 53.6 °F 100% 29.94 in 1.8 mi NE 13.8 mph 19.6 mph 0.07 in Rain Rain
6:56 PM 51.8 °F - 51.8 °F 100% 29.94 in 2.5 mi ENE 15.0 mph - N/A Rain Light Rain
7:04 PM 51.8 °F - 51.8 °F 100% 29.94 in 3.0 mi ENE 15.0 mph 23.0 mph 0.01 in Rain Light Rain
7:30 PM 51.8 °F - 51.8 °F 100% 29.94 in 4.0 mi ENE 15.0 mph - 0.02 in Rain Light Rain
7:56 PM 50.9 °F - 50.9 °F 100% 29.95 in 3.0 mi ENE 15.0 mph 23.0 mph 0.05 in Rain Light Rain
8:15 PM 51.8 °F - 50.0 °F 94% 29.95 in 4.0 mi ENE 12.7 mph 20.7 mph 0.02 in Rain Light Rain
8:47 PM 50.0 °F - 50.0 °F 100% 29.96 in 4.0 mi NE 13.8 mph 23.0 mph 0.04 in Rain Light Rain
8:56 PM 50.0 °F - 50.0 °F 100% 29.96 in 4.0 mi NE 9.2 mph - 0.05 in Rain Light Rain
9:19 PM 48.2 °F - 48.2 °F 100% 29.96 in 2.5 mi NE 13.8 mph 20.7 mph 0.02 in Rain Rain
9:28 PM 48.2 °F - 48.2 °F 100% 29.97 in 3.0 mi NE 15.0 mph 23.0 mph 0.02 in Rain Light Rain
9:42 PM 48.2 °F - 48.2 °F 100% 29.97 in 2.5 mi NE 13.8 mph - 0.04 in Rain Rain
9:56 PM 48.2 °F - 48.2 °F 100% 29.97 in 2.5 mi NE 18.4 mph 24.2 mph N/A Rain Rain
10:07 PM 46.4 °F 40.4 °F 46.4 °F 100% 29.98 in 4.0 mi NE 13.8 mph 21.9 mph 0.01 in Rain Light Rain
10:56 PM 45.0 °F 38.5 °F 43.9 °F 96% 29.98 in 4.0 mi NE 13.8 mph 23.0 mph 0.07 in Rain Light Rain
11:56 PM 43.9 °F 36.8 °F 43.0 °F 97% 29.98 in 4.0 mi NE 15.0 mph 21.9 mph 0.06 in Rain Rain